Location: *
(58.4167°N, 22.5000°E)
Time: 05:54:31
(UTC+00:00)

SJ 16-02 - Pass Details

Date: 22 September 2019
Orbit: 606 x 617 km, 75.0° (Epoch: 17 October)

Event Time Altitude Azimuth Distance (km) Brightness Sun altitude
Rises 20:53:06 0° 330° (NNW) 2,904 6.0 -28.8°
Reaches altitude 10° 20:55:57 10° 348° (NNW) 1,993 4.8 -29.0°
Maximum altitude 20:59:08 19° 34° (NE) 1,488 3.6 -29.1°
Enters shadow 20:59:34 19° 42° (NE) 1,499 3.5 -29.2°
